Location: Unspecified
(0.0000°N, 0.0000°E)
Time: 16:01:39
(UTC+00:00)

STARLINK-5769 - Visible Passes

Search period start: 14 January 2026 00:00
Search period end: 24 January 2026 00:00
Orbit: 558 x 560 km, 43.0° (Epoch: 14 January)

Date Brightness Start Highest point End Pass type
(mag) Time Alt. Az. Time Alt. Az. Time Alt. Az.
21 Jan 6.5 20:18:22 10° NW 20:18:22 10° NW 20:18:22 10° NW visible
22 Jan 5.5 18:36:57 10° NNE 18:38:59 13° NE 18:41:01 10° ENE visible
22 Jan 5.5 20:15:28 10° WNW 20:17:39 28° WNW 20:17:39 28° WNW visible
23 Jan 4.9 18:32:41 10° N 18:35:59 22° NE 18:39:17 10° E visible
23 Jan 5.5 20:12:53 10° WNW 20:16:30 28° SW 20:17:21 25° SSW visible
